Tracking 30743 objects as of 21-Jun-2025
HD Live streaming from Space Station
objects crossing your sky now

LEASAT 5

Track LEASAT 5 now!
LEASAT 5 is classified as:


NORAD ID: 20410
Int'l Code: 1990-002B
Perigee: 35,964.6 km
Apogee: 36,003.2 km
Inclination: 11.2 °
Period: 1,445.8 minutes
Semi major axis: 42354 km
RCS: 12.5892 m2 (large)
Launch date: January 9, 1990
Source: United States (US)
Launch site: AIR FORCE EASTERN TEST RANGE (AFETR)

Ultra High Frequency (UHF) satellite communications services to Australia; leased at end of use by U.S. Navy to Royal Australian Navy.
Your satellite tracking list
Your tracking list is empty




NASA's NSSDC Master Catalog

Two Line Element Set (TLE):
1 20410U 90002B   25171.72076135  .00000001  00000-0  00000-0 0  9996
2 20410  11.1673 354.3537 0004549  76.8900 117.8082  0.99597253114822
Source of the keplerian elements: AFSPC